Showing default

DIRECTV 15, 40663

Orbit data source: Space-Track

DIRECTV 15, 40663 is a payload satellite owned by DirecTV (US) in GEO that was launched on Wed, 27 May 2015 UTC via an ARIANE 5ECA launch vehicle from the French Guiana (FRGUI). Payload-class satellites include a variety of spacecraft equipped with specific instruments for various scientific and technological missions. These include communications satellites like Starlink; space stations such as the ISS; scientific satellites like the Hubble; Earth observation satellites from companies like Planet Labs, Umbra, and HawkEye 360; GPS; miniature CubeSats for education and research; and military/defense satellites.

Loading next visibility...
Identifier
40663, 2015-026A
Orbit
GEO
Last TLE update
14 hours ago
Origin
Manufacturer
Airbus/Toulouse
Mission
Operational Commercial Communications
Bus & Motor
EUROSTAR 3000, R-4D?
Mass
6,205 kg wet, 3,381 kg dry
Launch date (UTC)
2015-05-27 (10 years ago)
Launch vehicle
ARIANE 5ECA
Launch site
French Guiana (FRGUI)
Object type
Payload
Rocket body
Debris
Shape & HBR
Box + 2 Pan, 45 m
Radar Cross Section
49.053 m², Large (>1 m²)

Expand to show TLE details & history

TLE from 14 hours ago
0 DIRECTV 15
1 40663U 15026A   25129.25847115 -.00000095  00000-0  00000-0 0  9990
2 40663   0.0220  79.2792 0000547  77.4795  60.7352  1.00268369 36418
Epoch: 2025-05-09T06:12Z
Definitive object data (Epoch: 2025-05-09T06:12:11.907Z)
Latitude
0.00074°
Longitude
-102.87169°
Altitude
35,785.912 km
Speed
3.075 km/s
True Right ascension
14h 29m 58s
True Declination
0° 00' 03"
Sunlit
Object was in daylight at TLE epoch
Visualization TLE readout
Latitude
-0.00003°
Longitude
113.5011°
Altitude
35,786.772 km
Speed
3.075 km/s
Apparent Right ascension
04h 56m 38s
Apparent Declination
-6° 14' 00"
Sunlit
Object is in daylight
Visualization observer readout
Local Sidereal Time
04:46:34
Azimuth
176.531° S
Elevation
43.792°
Doppler factor
1
Orbital elements
Apogee altitude
35,790.929 km
Perigee altitude
35,786.316 km
Semi-major axis
42,166.76 km
Eccentricity
0.0000547
Inclination
0.022°
RAAN
79.2792°
Arg. of periapsis
77.4795°
True anomaly
60.74067°
Mean anomaly
60.7352°
Eccentric anomaly
60.73793°
Mean motion
0.25066 °/min
BSTAR
Unknown
Orbital period
1436.2 mins
Loading historical data...
40663 neighbors
Loading maneuver chart data...
Loading SW <> Apogee altitude chart data...
Loading historical data...
Loading historical data...
Loading historical data...
Loading historical data...
Loading historical data...
Loading historical data...
Loading historical data...
Other satellites on launch #26 in the year 2015 (2015-05-27 UTC)

DIRECTV 15 Visibility forecast

Observer location: undefined°, undefined°

Span
Click to sort rows by Start time (UTC) header in descending order
Start Az.
Max El. time (UTC)
Max El. Az.
Max El.
End time (UTC)
End Az.
1440 mins2025-05-09 20:35:24.546Z176.532° S2025-05-10 20:35:24.546Z176.556° S34.678°2025-05-10 20:35:24.546Z176.556° S
|